Location: Cedar Brake
(32.2526°N, 97.8459°W)
Time: 21:00:11
(UTC+00:00)

Alouette 2 Rocket - Pass Details

Date: 22 April 2026
Orbit: 501 x 2614 km, 79.8° (Epoch: 21 May)

Event Time Altitude Azimuth Distance (km) Brightness Sun altitude
Rises 10:26:07 0° 338° (NNW) 2,699 6.9 -18.2°
Reaches altitude 10° 10:28:27 10° 327° (NNW) 1,730 5.8 -17.7°
Enters shadow 10:30:29 24° 298° (WNW) 1,072 4.5 -17.3°
